Terminal Aerodrome Forecast
Issued by NWS

Home | Current Version | Previous Version | Graphics & Text | Print | Product List | Glossary On
Versions: 1 2 3 4 5 6 7 8 9 10 11 12 13 14 15
000
FTUS43 KABR 271008 AAA
TAFPIR
TAF AMD
KPIR 271008Z 2710/2806 31011KT P6SM SCT080 BKN200
     FM271700 08008KT P6SM VCSH BKN200=

USA.gov is the U.S. government's official web portal to all federal, state and local government web resources and services.